FENGYUN 1C DEB, 32331

Orbit data source: Space-Track

FENGYUN 1C DEB, 32331 is space debris in SSO originally from a launch on Mon, 10 May 1999 UTC launched from the Taiyaun Space Center, China (TSC). Fengyun 1C debris stems from the Chinese weather satellite Fengyun-1C, which was intentionally destroyed by a Chinese anti-satellite missile in 2007. This event dramatically increased the amount of space debris, with thousands of trackable fragments posing hazards to satellites and human spaceflight. The Fengyun 1C debris cloud has become a focal point in discussions about space sustainability and the need for international regulations to prevent the creation of new debris.

Loading next visibility...
Identifier
32331, 1999-025CXY
Orbit
SSO
Country
Flag of CNCN / PRC
Related business
Manufacturer
Unknown
Mission
Spacecraft
Bus & Motor
Unknown
Mass
Unknown
Launch date (UTC)
1999-05-10 (27 years ago)
Launch vehicle
Unknown
Launch site
Taiyaun Space Center, China (TSC)
Object type
Payload
Rocket body
Debris
Shape & HBR
Unknown shape, 0.1 m
Radar Cross Section
Small (<0.1 m²)

Expand to show TLE details & history
Last TLE update: 4 days ago

TLE from 4 days ago
0 FENGYUN 1C DEB
1 32331U 99025CXY 26067.16158163  .00061681  00000-0  81049-2 0  9995
2 32331  99.1801  51.2080 0011017 222.0126 138.0238 14.79881219618788
Epoch: 2026-03-08T03:52Z
TLE epoch observation values (Epoch: 2026-03-08T03:52:40.652Z)
Latitude
-0.00001°
Longitude
-172.83423°
Altitude
638.424 km
Speed
7.536 km/s
True Right ascension
03h 24m 49s
True Declination
0° 00' 00"
Sunlit
Object was in daylight at epoch
Visualization orbit readout
Latitude
Unknown
Longitude
Unknown
Altitude
Unknown
Speed
Unknown
Apparent Right ascension
Unknown
Apparent Declination
Unknown
Sunlit
N/A
Visualization observer readout
Local Sidereal Time
19:57:29
Azimuth
Unknown
Elevation
Unknown
Doppler factor
Unknown
Orbital elements
Apogee altitude
634.519 km
Perigee altitude
619.085 km
Semi-major axis
7,004.939 km
Eccentricity
0.0011
Inclination
99.1801°
RAAN
51.208°
Arg. of periapsis
222.0126°
True anomaly
138.10815°
Mean anomaly
138.0238°
Eccentric anomaly
138.06598°
Mean motion
3.702 °/min
Orbital period
97.24 mins
BSTAR
0.0081049
Loading maneuver chart data...
Computing Atmospheric mass density...

Documentation

Showing up to 5 results
|